Regional Weather Roundup
Issued by NWS Sioux Falls, SD

Home | Current Version | Previous Version | Text Only | Print | Product List | Glossary Off
Versions: 1 2 3 4 5 6 7 8 9 10 11 12 13 14 15 16 17 18 19 20 21 22 23 24 25 26 27 28 29 30 31 32 33 34 35 36 37 38 39 40 41 42 43 44 45 46 47 48 49 50

000
ASUS43 KFSD 220510
RWRFSD

WEATHER ROUNDUP FOR SE SOUTH DAKOTA/SW MINNESOTA/NW IOWA
NATIONAL WEATHER SERVICE SIOUX FALLS SD
1200 AM CDT SUN APR 22 2018

NOTE: "FAIR" INDICATES FEW OR NO CLOUDS BELOW 12,000 FEET WITH NO
SIGNIFICANT WEATHER AND OR OBSTRUCTIONS TO VISIBILITY.


SDZ038>040-050-052>070-220600-
SOUTHEAST SOUTH DAKOTA

CITY           SKY/WX    TMP DP  RH WIND       PRES   REMARKS
BROOKINGS      CLOUDY    37  31  78 E6        30.30F
CHAMBERLAIN    CLOUDY    41  41  98 CALM      30.26F
HURON          CLEAR     39  33  79 SE9       30.28S
MADISON        FAIR      36  36 100 E6        30.29F
MITCHELL       CLOUDY    39  35  86 E6        30.29F
SIOUX FALLS    CLOUDY    41  33  73 E5        30.29F
WINNER         CLOUDY    38  33  82 SE6       30.25F
YANKTON        CLOUDY    45  38  76 NE6       30.28S
$$

MNZ071-072-080-081-089-090-097-098-220600-
SOUTHWEST MINNESOTA

CITY           SKY/WX    TMP DP  RH WIND       PRES   REMARKS
FAIRMONT       PTCLDY    39  32  76 CALM      30.33S
JACKSON        CLOUDY    36  32  87 E6        30.32S
LUVERNE        CLOUDY    39  32  75 NE3       30.31S
MARSHALL       CLEAR     35  31  85 CALM      30.33F
MONTEVIDEO     CLEAR     39  34  81 SW7       30.33F
PIPESTONE      CLEAR    N/A N/A N/A E6        30.30F
REDWOOD FALLS  CLEAR     39  34  82 S8        30.33F
TRACY          CLEAR     40  32  71 S3        30.32F
WINDOM         CLEAR     36  21  55 E5        30.32F
WORTHINGTON    CLOUDY    36  31  82 CALM      30.31F
$$

IAZ001>003-012>014-020>022-031-032-NEZ013-014-SDZ071-220600-
NORTHWEST IOWA

CITY           SKY/WX    TMP DP  RH WIND       PRES   REMARKS
CHEROKEE       CLOUDY    40  37  89 E10       30.28F
DENISON        CLOUDY    50  30  46 E12G17    30.28S
ESTHERVILLE    CLOUDY    36  32  85 E7        30.30F
LE MARS        CLOUDY    45  37  76 NE5       30.28F
ORANGE CITY    CLOUDY    45  37  76 E6        30.29S
SHELDON        CLOUDY    41  37  87 E8        30.27F
SIOUX CITY     CLOUDY    45  36  70 NE5       30.27F
SPENCER        CLOUDY    41  34  76 E8        30.30S
STORM LAKE     CLOUDY    41  39  93 E10       30.29F
$$

ABBREVIATIONS USED IN REMARKS
   TC - TEMPERATURE IN CELSIUS
  WCI - WIND CHILL INDEX
   HX - HEAT INDEX
  VSB - VISIBILITY





USA.gov is the U.S. government's official web portal to all federal, state and local government web resources and services.